This is the latest recevied weather packets stored in our database for station/object KD2ZLA. If no packets are shown the sender has not sent any weather packets the latest 10 day(s).
| Time | Temp. | Humidity | Pressure | Rain* | Wind** | Luminosity | Snow |
|---|---|---|---|---|---|---|---|
| 1777383834 | 19.44° C | 35% | 1015.4 hPa | 0 mm | - | 572 W/m² | - |
| 1777383530 | 19.44° C | 36% | 1015.3 hPa | 0 mm | - | 528 W/m² | - |
| 1777383227 | 18.89° C | 36% | 1015.6 hPa | 0 mm | - | 525 W/m² | - |
| 1777382924 | 18.89° C | 36% | 1015.5 hPa | 0 mm | - | 512 W/m² | - |
| 1777382619 | 18.89° C | 36% | 1015.5 hPa | 0 mm | - | 490 W/m² | - |
| 1777382315 | 18.89° C | 37% | 1015.4 hPa | 0 mm | - | 467 W/m² | - |
| 1777382012 | 18.33° C | 37% | 1015.5 hPa | 0 mm | - | 455 W/m² | - |
| 1777381712 | 18.33° C | 39% | 1015.5 hPa | 0 mm | - | 446 W/m² | - |
| 1777381407 | 18.33° C | 39% | 1015.7 hPa | 0 mm | - | 432 W/m² | - |
| 1777381104 | 18.33° C | 39% | 1015.4 hPa | 0 mm | - | 419 W/m² | - |
| 1777380801 | 17.78° C | 41% | 1015.4 hPa | 0 mm | - | 408 W/m² | - |
| 1777380498 | 17.78° C | 40% | 1015.5 hPa | 0 mm | - | 384 W/m² | - |
| 1777380195 | 17.78° C | 41% | 1015.6 hPa | 0 mm | - | 369 W/m² | - |
| 1777379890 | 17.22° C | 40% | 1015.5 hPa | 0 mm | - | 240 W/m² | - |
| 1777379586 | 17.22° C | 41% | 1015.5 hPa | 0 mm | - | 310 W/m² | - |
| 1777379283 | 17.22° C | 42% | 1015.5 hPa | 0 mm | - | 287 W/m² | - |
| 1777378982 | 17.22° C | 43% | 1015.8 hPa | 0 mm | - | 287 W/m² | - |
| 1777378678 | 16.67° C | 43% | 1015.7 hPa | 0 mm | - | 274 W/m² | - |
| 1777378375 | 16.67° C | 43% | 1015.9 hPa | 0 mm | - | 272 W/m² | - |
| 1777378070 | 16.67° C | 44% | 1016.1 hPa | 0 mm | - | 257 W/m² | - |
| 1777377764 | 16.11° C | 44% | 1016.1 hPa | 0 mm | - | 234 W/m² | - |
| 1777377459 | 16.11° C | 46% | 1016.2 hPa | 0 mm | - | 216 W/m² | - |
| 1777377154 | 15.56° C | 47% | 1016.3 hPa | 0 mm | - | 201 W/m² | - |
| 1777376852 | 15.56° C | 47% | 1016.5 hPa | 0 mm | - | 180 W/m² | - |
| 1777376549 | 15.56° C | 46% | 1016.4 hPa | 0 mm | - | 173 W/m² | - |
* Rain latest hour (hover to see other rain measurements)
** Current wind speed in m/s (hover to see current wind gust speed)